Terminal Aerodrome Forecast
Issued by NWS

Home | Current Version | Previous Version | Graphics & Text | Print | Product List | Glossary On
Versions: 1 2 3 4 5 6 7 8 9 10 11 12 13 14 15 16 17 18 19 20 21 22 23 24 25
000
FTUS43 KTOP 152000 AAA
TAFFOE
TAF AMD
KFOE 152003Z 1520/1618 29019G27KT P6SM OVC009
     FM152200 30019G27KT P6SM OVC015
     FM160000 31018G26KT P6SM OVC022
     FM161400 33015G22KT P6SM SCT030=

USA.gov is the U.S. government's official web portal to all federal, state and local government web resources and services.